Regional Weather Roundup
Issued by NWS

Home | Current Version | Previous Version | Graphics & Text | Print | Product List | Glossary On
Versions: 1 2 3 4 5 6 7 8 9 10 11 12 13 14 15 16 17 18 19 20 21 22 23 24 25 26 27 28 29 30 31 32 33 34 35 36 37 38 39 40 41 42 43 44 45 46 47 48 49 50
000
ASUS43 KLOT 030806
RWRIL

ILLINOIS REGIONAL WEATHER ROUNDUP
NATIONAL WEATHER SERVICE CHICAGO/ROMEOVILLE IL
200 AM CST TUE MAR 03 2015

NOTE: "FAIR" INDICATES FEW OR NO CLOUDS BELOW 12,000 FEET WITH NO
SIGNIFICANT WEATHER AND/OR OBSTRUCTIONS TO VISIBILITY.

* THESE STATIONS ARE NOT UNDER NWS QUALITY CONTROL. THEY ALSO MAY NOT
  REPORT WEATHER SUCH AS PRECIPITATION OR FOG.

ILZ001-002-007-009-015-016-024-030900-
NORTHWEST ILLINOIS

CITY           SKY/WX    TMP DP  RH WIND       PRES   REMARKS
MOLINE         CLOUDY    27  19  72 SE7       30.06F WCI  19
STERLING*      CLOUDY    25  19  80 SE9       30.09F WCI  15
SAVANNA*       CLOUDY    27  19  71 SE13      30.07F WCI  16
$$

ILZ003-004-008-010-011-017-018-030900-
NORTH CENTRAL ILLINOIS

CITY           SKY/WX    TMP DP  RH WIND       PRES   REMARKS
ROCKFORD       CLOUDY    24  17  74 SE10      30.12F WCI  14
FREEPORT*      CLOUDY    24  18  80 SE8       30.10F WCI  15
ROCHELLE*      CLOUDY    24  18  79 SE10      30.12F WCI  13
DE KALB*       CLOUDY    23  17  78 SE10      30.11F WCI  12
PERU*          CLOUDY    27  19  69 SE13      30.10F WCI  17
$$

ILZ005-006-012>014-019>023-030900-
NORTHEAST ILLINOIS

CITY           SKY/WX    TMP DP  RH WIND       PRES   REMARKS
CHICAGO-OHARE  CLOUDY    26  17  68 SE9       30.16F WCI  17
CHICAGO-MIDWAY CLOUDY    28  17  63 SE8       30.17F WCI  20
AURORA         CLOUDY    26  16  65 SE9       30.14F WCI  17
LANSING*       CLOUDY    27  17  66 SE8       30.16F WCI  18
JOLIET*        CLOUDY    26  18  72 SE9       30.16F WCI  16
WAUKEGAN       CLOUDY    27  15  61 SE7       30.14F WCI  19
DUPAGE AIRPORT CLOUDY    26  16  65 SE6       30.14F WCI  19
KANKAKEE*      MIX PCPN  26  20  78 E9        30.15F WCI  16
WHEELING       CLOUDY    27  15  61 SE6       30.17F WCI  20
MORRIS*        CLOUDY    27  20  75 SE9       30.14F WCI  17
ROMEOVILLE*    CLOUDY    26  18  71 SE7       30.16F WCI  18
NORTHERLY ISL    N/A     27  18  69 SE13        N/A  WCI  16
$$

LMZ740>746-030900-
SOUTHERN LAKE MICHIGAN

STATION/POSITION SKY/WX   TEMP    WIND        PRES    VSBY  WAVE
                          AIR SEA DIR/SP/G                  HT/PER
                          (F)     (DEG/KT/KT) (MB)    (MI)  (FT/S)
WAUKEGAN HARBOR            28     170/ 10/ 11   N/A
HARRISON CRIB              27     150/ 11/ 15   N/A
BURNHAM HARBOR             27     140/ 11/ 12   N/A
CALUMET HARBOR             27     140/  6/ 11 1020.2F
MICHIGAN CITY              26     110/  9/ 11   N/A
$$

ILZ025>027-034>036-040-047-049-050-058-095>099-030900-
WEST-CENTRAL ILLINOIS

CITY           SKY/WX    TMP DP  RH WIND       PRES   REMARKS
QUINCY         CLOUDY    29  22  75 SE13      30.03F WCI  19
GALESBURG*     CLOUDY    26  21  80 SE8       30.04F WCI  18
MACOMB*        LGT RAIN  28  23  84 S14       30.09F WCI  17
JACKSONVILLE*  MIX PCPN  31  25  79 SE9       30.06F WCI  23
PITTSFIELD*    CLOUDY    29  24  80 SE10      30.05F WCI  20
$$

ILZ028>032-037-038-041>044-048-051>054-059>061-030900-
CENTRAL ILLINOIS

CITY           SKY/WX    TMP DP  RH WIND       PRES   REMARKS
PONTIAC        CLOUDY    27  22  82 SE13      30.14R WCI  16
BLOOMINGTON    CLOUDY    26  22  85 SE12      30.10F WCI  16
DECATUR        CLOUDY    28  22  78 SE9       30.12F WCI  19
PEORIA         MIX PCPN  28  20  71 SE7       30.11F WCI  21
LACON*         CLOUDY    25  19  77 SE7       30.10F WCI  17
LINCOLN*       CLOUDY    29  23  79 SE10      30.11F WCI  19
SPRINGFIELD    FRZ RAIN  29  23  78 S8        30.12F WCI  21
TAYLORVILLE    CLOUDY    28  21  74 SE7       30.10F WCI  21
$$

ILZ033-039-045-046-055>057-062-063-030900-
EAST-CENTRAL ILLINOIS

CITY           SKY/WX    TMP DP  RH WIND       PRES   REMARKS
CHAMPAIGN      FRZ RAIN  28  22  78 SE15      30.13F WCI  16
DANVILLE*      LGT RAIN  26  19  73 SE8       30.13F WCI  18
RANTOUL*       MIX PCPN  29  22  76 SE10      30.13F WCI  19
MATTOON        MIX PCPN  29  18  63 SE15G23   30.08F WCI  18
PARIS*         MIX PCPN  29  20  71 E6        30.17F WCI  22
$$

ILZ079-100>102-030900-
SOUTHWEST ILLINOIS

CITY           SKY/WX    TMP DP  RH WIND       PRES   REMARKS
ALTON          CLOUDY    32  19  60 SE12      30.08F WCI  23
BELLEVILLE     CLOUDY    31  25  77 SE8       30.07F WCI  24
CAHOKIA*       CLOUDY    32  24  72 SE9       30.07F WCI  24
SPARTA*        CLOUDY    31  24  74 SE15      30.07F WCI  20
$$

ILZ064>066-069>071-074>076-080>082-084>086-088>090-092>094-030900-
SOUTH-CENTRAL ILLINOIS

CITY           SKY/WX    TMP DP  RH WIND       PRES   REMARKS
CARBONDALE     CLOUDY    33  24  69 SE6       30.11F WCI  28
CAIRO*         CLOUDY    37  28  68 E3        30.14F
EFFINGHAM*     CLOUDY    31  18  58 E16       30.12F WCI  20
MARION         CLOUDY    34  25  69 SE3       30.12F
MT. VERNON     CLOUDY    32  21  64 SE3       30.14F
CENTRALIA*     CLOUDY    31  21  64 SE7       30.10F WCI  25
SALEM*         CLOUDY    33  21  60 SE9       30.12F WCI  26
METROPOLIS*    CLOUDY    37  26  66 CALM      30.13F
$$

ILZ067-068-072-073-078-083-087-091-030900-
SOUTHEAST ILLINOIS

CITY           SKY/WX    TMP DP  RH WIND       PRES   REMARKS
LAWRENCEVILLE  CLOUDY    31  21  66 E9        30.17F WCI  23
FLORA*         CLOUDY    31  22  72 SE8       30.14F WCI  23
FAIRFIELD*     CLOUDY    32  23  70 SE7       30.13F WCI  26
HARRISBURG*    CLOUDY    33  26  77 E7        30.15F WCI  26
ROBINSON*      CLOUDY    30  20  66 E6        30.19F WCI  24
CARMI*         CLOUDY    35  28  77 SE7       30.14F WCI  29
$$

ABBREVIATIONS USED IN REMARKS
   TC - TEMPERATURE IN CELSIUS
  WCI - WIND CHILL INDEX
   HX - HEAT INDEX
  VSB - VISIBILITY
$$



USA.gov is the U.S. government's official web portal to all federal, state and local government web resources and services.